TimeMST,TemperatureF,Dew PointF,Humidity,Sea Level PressureIn,VisibilityMPH,Wind Direction,Wind SpeedMPH,Gust SpeedMPH,PrecipitationIn,Events,Conditions,WindDirDegrees,DateUTC
12:53 AM,33.8,28.4,81,30.27,10.0,Calm,Calm,-,N/A,,Overcast,0,2013-03-01 07:53:00
1:53 AM,39.2,28.4,65,30.26,10.0,Variable,4.6,-,N/A,,Overcast,0,2013-03-01 08:53:00
2:53 AM,42.1,30.0,62,30.36,10.0,WSW,8.1,-,N/A,,Overcast,240,2013-03-01 09:53:00
3:53 AM,42.1,28.9,60,30.35,10.0,West,6.9,-,N/A,,Scattered Clouds,280,2013-03-01 10:53:00
4:53 AM,42.8,28.4,57,30.27,10.0,West,5.8,-,N/A,,Overcast,260,2013-03-01 11:53:00
5:53 AM,41.0,30.9,67,30.37,10.0,Calm,Calm,-,N/A,,Overcast,0,2013-03-01 12:53:00
6:53 AM,42.1,30.0,62,30.35,10.0,ESE,5.8,-,N/A,,Overcast,110,2013-03-01 13:53:00
7:53 AM,41.0,30.0,65,30.36,10.0,ESE,8.1,-,N/A,,Overcast,120,2013-03-01 14:53:00
8:53 AM,45.0,30.0,56,30.34,10.0,SW,13.8,17.3,N/A,,Mostly Cloudy,230,2013-03-01 15:53:00
9:53 AM,48.0,30.9,52,30.34,10.0,East,5.8,-,N/A,,Overcast,80,2013-03-01 16:53:00
10:53 AM,48.9,28.9,46,30.34,10.0,SW,13.8,26.5,N/A,,Clear,220,2013-03-01 17:53:00
11:53 AM,50.0,28.9,44,30.35,10.0,West,12.7,-,N/A,,Clear,260,2013-03-01 18:53:00
12:53 PM,50.0,30.0,46,30.35,10.0,WNW,12.7,-,N/A,,Scattered Clouds,290,2013-03-01 19:53:00
1:53 PM,52.0,30.0,43,30.33,10.0,WNW,3.5,-,N/A,,Overcast,300,2013-03-01 20:53:00
2:53 PM,53.6,28.4,38,30.25,10.0,WSW,10.4,-,N/A,,Mostly Cloudy,240,2013-03-01 21:53:00
3:53 PM,53.1,30.0,41,30.30,10.0,West,10.4,18.4,N/A,,Overcast,260,2013-03-01 22:53:00
4:53 PM,53.1,28.9,40,30.31,10.0,SW,8.1,24.2,N/A,,Mostly Cloudy,230,2013-03-01 23:53:00
5:53 PM,51.1,28.9,43,30.32,10.0,WSW,15.0,28.8,N/A,,Mostly Cloudy,250,2013-03-02 00:53:00
6:53 PM,50.0,28.9,44,30.31,10.0,West,15.0,23.0,N/A,,Clear,260,2013-03-02 01:53:00
7:53 PM,50.0,28.9,44,30.34,10.0,SW,16.1,25.3,N/A,,Clear,230,2013-03-02 02:53:00
8:53 PM,48.9,28.9,46,30.34,10.0,WSW,5.8,-,N/A,,Clear,240,2013-03-02 03:53:00
9:53 PM,48.9,28.9,46,30.33,10.0,WSW,11.5,17.3,N/A,,Mostly Cloudy,240,2013-03-02 04:53:00
10:53 PM,46.0,28.9,51,30.34,10.0,West,9.2,-,N/A,,Clear,270,2013-03-02 05:53:00
11:53 PM,43.0,28.9,58,30.34,10.0,West,5.8,-,N/A,,Clear,280,2013-03-02 06:53:00